Port Clinton Carl R Keller Fi, OH

2:18 PM EST on February 23, 2018 (GMT -0500)
Keller

Weather History for KPCW - May, 2014

Change the Weather History Date:

Monday, May 19, 2014

  Actual Average (KTTF) Record (KTTF)
Temperature  
Mean Temperature 60 °F -  
Max Temperature 70 °F 72 °F 91 °F (1934)
Min Temperature 51 °F 51 °F 30 °F (2002)
Degree Days  
Heating Degree Days 4    
Growing Degree Days 10 (Base 50)    
Moisture  
Dew Point 41 °F    
Average Humidity 53    
Maximum Humidity 67    
Minimum Humidity 33    
Precipitation  
Precipitation 0.00 in - - ()
Sea Level Pressure  
Sea Level Pressure 30.24 in    
Wind  
Wind Speed 6 mph (South)    
Max Wind Speed 13 mph    
Max Gust Speed -    
Visibility 10 miles    
Events      
Averages and records for this station are not official NWS values.
T = Trace of Precipitation, MM = Missing Value Source: NWS Daily Summary

Daily Weather History Graph

Daily Weather History Graph

Search for Another Location

Airport or City:

Trip Planner

Search our weather history database for the weather conditions in past years. The results will help you decide how hot, cold, wet, or windy it might be!

Date:

Astronomy

May. 19, 2014 Rise Set
Actual Time 6:08 AM EDT 8:47 PM EDT
Civil Twilight 5:36 AM EDT 9:19 PM EDT
Nautical Twilight 4:56 AM EDT 10:00 PM EDT
Astronomical Twilight 4:11 AM EDT 10:45 PM EDT
Moon 12:33 AM EDT (5/19) 11:05 AM EDT (5/19)
Length of Visible Light 15h 43m
Length of Day
14h 39m
Waning Gibbous, 71% of the Moon is Illuminated
May 19
Waning Gibbous
May 21
Last Quarter
May 28
New
Jun 5
First Quarter
Jun 13
Full

Hourly Weather History & Observations

Time (EDT) Temp. Dew Point Humidity Pressure Visibility Wind Dir Wind Speed Gust Speed Precip Events Conditions
12:14 AM 55.4 °F 42.8 °F 63% 30.25 in 10.0 mi SW 4.6 mph - N/A   Clear
12:34 AM 55.4 °F 42.8 °F 63% 30.25 in 10.0 mi SW 4.6 mph - N/A   Clear
12:53 AM 54.0 °F 41.9 °F 64% 30.24 in 10.0 mi SW 4.6 mph - N/A   Clear
1:14 AM 53.6 °F 42.8 °F 67% 30.24 in 10.0 mi SW 4.6 mph - N/A   Clear
1:33 AM 53.6 °F 42.8 °F 67% 30.24 in 10.0 mi SW 4.6 mph - N/A   Clear
1:54 AM 54.0 °F 41.0 °F 62% 30.24 in 10.0 mi SW 5.8 mph - N/A   Clear
2:13 AM 55.4 °F 39.2 °F 54% 30.24 in 10.0 mi SW 4.6 mph - N/A   Clear
2:33 AM 53.6 °F 41.0 °F 62% 30.25 in 10.0 mi WSW 4.6 mph - N/A   Clear
2:54 AM 52.9 °F 38.8 °F 59% 30.25 in 10.0 mi SW 6.9 mph - N/A   Clear
3:13 AM 53.6 °F 39.2 °F 58% 30.25 in 10.0 mi SW 5.8 mph - N/A   Clear
3:34 AM 51.8 °F 39.2 °F 62% 30.25 in 10.0 mi SW 4.6 mph - N/A   Clear
3:53 AM 52.0 °F 41.0 °F 66% 30.25 in 10.0 mi SW 5.8 mph - N/A   Clear
4:14 AM 51.8 °F 39.2 °F 62% 30.26 in 10.0 mi SW 6.9 mph - N/A   Clear
4:33 AM 51.8 °F 39.2 °F 62% 30.26 in 10.0 mi SW 4.6 mph - N/A   Clear
4:53 AM 52.0 °F 39.9 °F 63% 30.27 in 10.0 mi SW 5.8 mph - N/A   Clear
5:14 AM 51.8 °F 39.2 °F 62% 30.27 in 10.0 mi SW 5.8 mph - N/A   Clear
5:33 AM 51.8 °F 41.0 °F 67% 30.27 in 10.0 mi SW 5.8 mph - N/A   Clear
5:54 AM 52.0 °F 37.9 °F 59% 30.28 in 10.0 mi SW 5.8 mph - N/A   Clear
6:13 AM 51.8 °F 39.2 °F 62% 30.28 in 10.0 mi SW 5.8 mph - N/A   Clear
6:34 AM 51.8 °F 39.2 °F 62% 30.29 in 10.0 mi SW 4.6 mph - N/A   Clear
6:53 AM 52.0 °F 39.9 °F 63% 30.29 in 10.0 mi SW 4.6 mph - N/A   Clear
7:14 AM 53.6 °F 41.0 °F 62% 30.30 in 10.0 mi SW 4.6 mph - N/A   Clear
7:33 AM 55.4 °F 41.0 °F 58% 30.30 in 10.0 mi SW 5.8 mph - N/A   Clear
7:54 AM 54.9 °F 39.9 °F 57% 30.30 in 10.0 mi SW 8.1 mph - N/A   Clear
8:13 AM 55.4 °F 41.0 °F 58% 30.31 in 10.0 mi SW 6.9 mph - N/A   Clear
8:33 AM 57.2 °F 42.8 °F 59% 30.31 in 10.0 mi SW 5.8 mph - N/A   Clear
9:34 AM 60.8 °F 42.8 °F 52% 30.32 in 10.0 mi WSW 6.9 mph - N/A   Clear
9:53 AM 61.9 °F 41.9 °F 48% 30.32 in 10.0 mi WSW 8.1 mph - N/A   Clear
10:53 AM 64.9 °F 41.0 °F 42% 30.30 in 10.0 mi SW 9.2 mph - N/A   Clear
11:14 AM 66.2 °F 39.2 °F 37% 30.29 in 10.0 mi SW 6.9 mph - N/A   Clear
11:34 AM 66.2 °F 41.0 °F 40% 30.29 in 10.0 mi SW 5.8 mph - N/A   Clear
11:53 AM 68.0 °F 41.0 °F 37% 30.28 in 10.0 mi Variable 4.6 mph - N/A   Clear
12:14 PM 68.0 °F 39.2 °F 35% 30.29 in 10.0 mi SSW 4.6 mph - N/A   Clear
12:33 PM 68.0 °F 39.2 °F 35% 30.28 in 10.0 mi Variable 4.6 mph - N/A   Clear
12:54 PM 68.0 °F 38.8 °F 34% 30.29 in 10.0 mi West 6.9 mph - N/A   Clear
1:13 PM 69.8 °F 39.2 °F 33% 30.29 in 10.0 mi West 8.1 mph - N/A   Clear
1:33 PM 69.8 °F 39.2 °F 33% 30.26 in 10.0 mi WSW 3.5 mph - N/A   Clear
1:53 PM 70.0 °F 39.9 °F 33% 30.26 in 9.0 mi SW 9.2 mph - N/A   Clear
2:14 PM 69.8 °F 39.2 °F 33% 30.26 in 10.0 mi South 3.5 mph - N/A   Clear
2:34 PM 69.8 °F 41.0 °F 35% 30.25 in 10.0 mi WSW 9.2 mph - N/A   Clear
2:53 PM 70.0 °F 41.0 °F 35% 30.25 in 10.0 mi Variable 3.5 mph - N/A   Clear
3:14 PM 68.0 °F 39.2 °F 35% 30.23 in 10.0 mi Variable 4.6 mph - N/A   Clear
3:34 PM 69.8 °F 39.2 °F 33% 30.23 in 10.0 mi Calm Calm - N/A   Clear
3:53 PM 68.9 °F 39.9 °F 35% 30.22 in 10.0 mi East 3.5 mph - N/A   Clear
4:14 PM 68.0 °F 44.6 °F 43% 30.22 in 10.0 mi East 5.8 mph - N/A   Clear
4:34 PM 68.0 °F 46.4 °F 46% 30.21 in 10.0 mi ENE 8.1 mph - N/A   Clear
4:53 PM 66.9 °F 43.0 °F 42% 30.21 in 10.0 mi East 9.2 mph - N/A   Clear
5:14 PM 68.0 °F 42.8 °F 40% 30.21 in 10.0 mi ENE 9.2 mph - N/A   Clear
5:34 PM 68.0 °F 42.8 °F 40% 30.20 in 10.0 mi East 9.2 mph - N/A   Clear
5:53 PM 65.8 °F 41.9 °F 42% 30.20 in 10.0 mi East 12.7 mph - N/A   Clear
6:14 PM 66.2 °F 42.8 °F 43% 30.19 in 10.0 mi East 11.5 mph - N/A   Clear
6:53 PM 61.9 °F 45.0 °F 54% 30.18 in 10.0 mi ESE 8.1 mph - N/A   Clear
7:14 PM 60.8 °F 44.6 °F 55% 30.18 in 10.0 mi ESE 8.1 mph - N/A   Clear
7:33 PM 60.8 °F 42.8 °F 52% 30.17 in 10.0 mi ESE 8.1 mph - N/A   Clear
7:53 PM 59.0 °F 43.9 °F 57% 30.17 in 10.0 mi ESE 8.1 mph - N/A   Clear
8:14 PM 57.2 °F 42.8 °F 59% 30.16 in 10.0 mi ESE 6.9 mph - N/A   Clear
8:33 PM 57.2 °F 42.8 °F 59% 30.16 in 10.0 mi ESE 6.9 mph - N/A   Clear
8:54 PM 56.8 °F 43.0 °F 60% 30.16 in 10.0 mi ESE 5.8 mph - N/A   Clear
9:14 PM 55.4 °F 42.8 °F 63% 30.15 in 10.0 mi East 8.1 mph - N/A   Clear
9:33 PM 57.2 °F 42.8 °F 59% 30.15 in 10.0 mi East 8.1 mph - N/A   Clear
9:54 PM 56.8 °F 43.9 °F 62% 30.15 in 10.0 mi ESE 6.9 mph - N/A   Clear
10:13 PM 57.2 °F 42.8 °F 59% 30.16 in 10.0 mi ESE 8.1 mph - N/A   Clear
10:34 PM 55.4 °F 42.8 °F 63% 30.16 in 10.0 mi ESE 6.9 mph - N/A   Clear
10:54 PM 54.9 °F 43.0 °F 64% 30.16 in 10.0 mi ESE 6.9 mph - N/A   Clear
11:13 PM 55.4 °F 44.6 °F 67% 30.16 in 10.0 mi ESE 5.8 mph - N/A   Clear
11:34 PM 55.4 °F 44.6 °F 67% 30.16 in 10.0 mi ESE 4.6 mph - N/A   Clear
11:53 PM 56.8 °F 45.9 °F 67% 30.17 in 10.0 mi Calm Calm - N/A   Clear